Main page
METAR-TAF:

METAR-TAF

Airports :

Tahoua Airport

Tahoua, Niger

latitude: 14-54N, longitude: 005-15E, elevation: 386 m

Current weather observation

The report was made 8 hours and 18 minutes ago, at 12:00 UTC
Wind 4 kt from the South
Temperature 37°C
Humidity 18%
Pressure 1012 hPa
Visibility 10 km or more
no clouds below 1500 m and no cumulonimbus

METAR: DRRT 281200Z 18004KT CAVOK 37/09 Q1012

Time: 21:18 (20:18 UTC)


TAF: missing

Weather observations and forecasts of more than 4000 airports (METAR and TAF reports).

The available stations are represented by yellow and red dots on the map.

Hover mouse over dot to see the name of the station.

Then click to see weather observations and forecasts.

To change the map : click on the green buttons with a black cross to zoom in, on the green button with a dash to zoom out, or on the green arrows for adjacent maps.


METAR-TAF: